This is the latest recevied weather packets stored in our database for station/object DO1MIT-10. If no packets are shown the sender has not sent any weather packets the latest 10 day(s).
| Time | Temp. | Humidity | Pressure | Rain* | Wind** | Luminosity | Snow |
|---|---|---|---|---|---|---|---|
| 1777417445 | 3.89° C | 53% | 1027.4 hPa | - | - | - | - |
| 1777416545 | 3.89° C | 53% | 1027.4 hPa | - | - | - | - |
| 1777415645 | 3.89° C | 52% | 1027.4 hPa | - | - | - | - |
| 1777414744 | 4.44° C | 51% | 1027.2 hPa | - | - | - | - |
| 1777413844 | 5° C | 50% | 1027.2 hPa | - | - | - | - |
| 1777412944 | 5° C | 50% | 1027.1 hPa | - | - | - | - |
| 1777412044 | 5.56° C | 50% | 1027.1 hPa | - | - | - | - |
| 1777411144 | 5.56° C | 49% | 1027 hPa | - | - | - | - |
| 1777410244 | 5.56° C | 49% | 1026.9 hPa | - | - | - | - |
| 1777409344 | 6.11° C | 48% | 1026.7 hPa | - | - | - | - |
| 1777408444 | 6.11° C | 48% | 1026.6 hPa | - | - | - | - |
| 1777407544 | 6.67° C | 47% | 1026.6 hPa | - | - | - | - |
| 1777406644 | 7.22° C | 47% | 1026.5 hPa | - | - | - | - |
| 1777405744 | 6.67° C | 46% | 1026.4 hPa | - | - | - | - |
| 1777404843 | 7.22° C | 46% | 1026.3 hPa | - | - | - | - |
| 1777403943 | 7.22° C | 45% | 1026.3 hPa | - | - | - | - |
| 1777403043 | 7.78° C | 44% | 1026.2 hPa | - | - | - | - |
| 1777402143 | 8.89° C | 44% | 1026.1 hPa | - | - | - | - |
| 1777401243 | 9.44° C | 43% | 1025.9 hPa | - | - | - | - |
| 1777400343 | 10° C | 43% | 1025.7 hPa | - | - | - | - |
| 1777399443 | 11.11° C | 43% | 1025.5 hPa | - | - | - | - |
| 1777398543 | 11.11° C | 43% | 1025.2 hPa | - | - | - | - |
| 1777397643 | 11.67° C | 43% | 1025.1 hPa | - | - | - | - |
| 1777396743 | 12.22° C | 43% | 1025 hPa | - | - | - | - |
| 1777395842 | 12.22° C | 43% | 1025.1 hPa | - | - | - | - |
* Rain since midnight (hover to see other rain measurements)
** Current wind speed in m/s (hover to see current wind gust speed)